Munising, MI

8:11 PM EDT on April 19, 2018 (GMT -0400)
Munising

Weather History for KP53 - February, 2013

Change the Weather History Date:

Saturday, February 23, 2013

  Actual Average (KISQ) Record (KISQ)
Temperature  
Mean Temperature 26 °F -  
Max Temperature 32 °F 31 °F 47 °F (1958)
Min Temperature 21 °F 12 °F -17 °F (2015)
Degree Days  
Heating Degree Days 38    
Moisture  
Dew Point 22 °F    
Average Humidity 81    
Maximum Humidity 89    
Minimum Humidity 66    
Precipitation  
Precipitation 0.09 in - - ()
Sea Level Pressure  
Sea Level Pressure 29.77 in    
Wind  
Wind Speed 1 mph (SSW)    
Max Wind Speed 6 mph    
Max Gust Speed -    
Averages and records for this station are not official NWS values.
T = Trace of Precipitation, MM = Missing Value Source: NWS Daily Summary

Daily Weather History Graph

Daily Weather History Graph

Search for Another Location

Airport or City:

Astronomy

Feb. 23, 2013 Rise Set
Actual Time 7:36 AM EST 6:24 PM EST
Civil Twilight 7:05 AM EST 6:54 PM EST
Nautical Twilight 6:30 AM EST 7:29 PM EST
Astronomical Twilight 5:55 AM EST 8:04 PM EST
Moon 4:30 PM EST (2/23) 6:02 AM EST (2/23)
Length of Visible Light 11h 49m
Length of Day
10h 48m
Waxing Gibbous, 95% of the Moon is Illuminated
Feb 23
Waxing Gibbous
Feb 25
Full
Mar 4
Last Quarter
Mar 11
New
Mar 19
First Quarter

Hourly Weather History & Observations

Time (EST) Temp. Windchill Dew Point Humidity Pressure Visibility Wind Dir Wind Speed Gust Speed Precip Events Conditions
12:56 AM 25.0 °F - 21.0 °F 85% 29.80 in - Calm Calm - 0.02 in   Unknown
1:56 AM 25.0 °F - 21.0 °F 85% 29.78 in - Calm Calm - N/A   Unknown
2:56 AM 24.1 °F - 21.0 °F 88% 29.77 in - Calm Calm - 0.01 in   Unknown
3:56 AM 24.1 °F - 21.0 °F 88% 29.75 in - Calm Calm - N/A   Unknown
4:56 AM 25.0 °F 20.7 °F 21.0 °F 85% 29.75 in - SSW 3.5 mph - N/A   Unknown
5:56 AM 21.9 °F - 18.0 °F 85% 29.75 in - Calm Calm - N/A   Unknown
6:56 AM 21.0 °F - 18.0 °F 88% 29.75 in - Calm Calm - 0.01 in   Unknown
7:56 AM 21.0 °F 16.2 °F 17.1 °F 85% 29.76 in - South 3.5 mph - N/A   Unknown
8:56 AM 21.0 °F 16.2 °F 18.0 °F 88% 29.75 in - South 3.5 mph - N/A   Unknown
9:56 AM 25.0 °F 20.7 °F 19.9 °F 81% 29.75 in - South 3.5 mph - N/A   Unknown
10:56 AM 28.0 °F 24.2 °F 21.9 °F 78% 29.74 in - SSE 3.5 mph - N/A   Unknown
11:56 AM 30.9 °F 25.2 °F 21.9 °F 69% 29.75 in - South 5.8 mph - N/A   Unknown
12:56 PM 30.9 °F - 21.0 °F 67% 29.74 in - Calm Calm - N/A   Unknown
1:56 PM 32.0 °F 28.7 °F 21.9 °F 66% 29.74 in - SW 3.5 mph - N/A   Unknown
2:56 PM 32.0 °F 27.5 °F 21.9 °F 66% 29.75 in - South 4.6 mph - N/A   Unknown
3:56 PM 32.0 °F - 21.9 °F 66% 29.76 in - Calm Calm - N/A   Unknown
4:56 PM 30.9 °F 27.5 °F 24.1 °F 76% 29.77 in - SW 3.5 mph - N/A   Unknown
5:56 PM 28.9 °F - 25.0 °F 85% 29.78 in - Calm Calm - 0.02 in   Unknown
6:56 PM 28.9 °F - 25.0 °F 85% 29.80 in - Calm Calm - 0.01 in   Unknown
7:56 PM 28.9 °F - 26.1 °F 89% 29.81 in - Calm Calm - 0.01 in   Unknown
8:56 PM 28.9 °F 25.2 °F 25.0 °F 85% 29.83 in - North 3.5 mph - 0.01 in   Unknown
9:56 PM 27.0 °F 23.0 °F 24.1 °F 89% 29.83 in - NNW 3.5 mph - N/A   Unknown
10:56 PM 25.0 °F - 21.9 °F 88% 29.84 in - Calm Calm - N/A   Unknown
11:56 PM 26.1 °F - 23.0 °F 88% 29.84 in - Calm Calm - N/A   Unknown